Location: Enikep?du
(16.5133°N, 80.7066°E)
Time: 21:56:26
(UTC+00:00)

CZ-4 R/B - Pass Details

Date: 15 May 2026
Orbit: 491 x 534 km, 97.5° (Epoch: 10 June)

Event Time Altitude Azimuth Distance (km) Brightness Sun altitude
Exits shadow 14:53:27 31° 358° (N) 878 2.6 -25.3°
Drops below altitude 10° 14:55:27 10° 353° (N) 1,678 4.2 -25.7°
Sets 14:57:31 0° 351° (N) 2,559 5.3 -26.1°
